Location: Casteau
(50.5142°N, 4.0161°E)
Time: 03:00:41
(UTC+00:00)

Explorer 11/Cluster Stage 4 - Pass Details

Date: 10 August 2021
Orbit: 467 x 1257 km, 28.8° (Epoch: 18 September)

Event Time Altitude Azimuth Distance (km) Brightness Sun altitude
Rises 08:09:41 0° 234° (SW) 3,693 9.7 33.9°
Reaches altitude 10° 08:15:35 10° 195° (SSW) 2,968 9.7 34.8°
Maximum altitude 08:16:30 10° 188° (S) 2,978 9.8 34.9°
Drops below altitude 10° 08:17:25 10° 181° (S) 3,025 9.9 35.1°
Sets 08:23:58 0° 144° (SE) 4,138 11.0 36.1°
